| time (UTC) | temp C | wind direction | speed KPH | gust KPH | rain 1hr cm | rain 24hr cm | rain mn cm | humidity % | barometer mb |
| 20260906221537 | 20 | 235 | 0.0 | 0.0 | 0.00 | 0.00 | 1.83 | 97 | 1000.0 |
| 20260906220036 | 20 | 259 | 0.0 | 0.0 | 0.00 | 0.00 | 1.73 | 97 | 1000.5 |
| 20260906214538 | 20 | 267 | 0.0 | 0.0 | 0.00 | 0.00 | 1.60 | 96 | 1000.5 |
| 20260906213034 | 20 | 267 | 0.0 | 0.0 | 0.00 | 0.00 | 1.50 | 96 | 1000.7 |
| 20260906211533 | 20 | 267 | 0.0 | 0.0 | 0.00 | 0.00 | 1.37 | 96 | 1001.1 |
| 20260906210033 | 20 | 271 | 0.0 | 0.0 | 0.00 | 0.00 | 1.22 | 96 | 1001.3 |
| 20260906204531 | 20 | 238 | 0.0 | 0.0 | 0.00 | 0.00 | 1.14 | 96 | 1001.5 |
| 20260906203029 | 20 | 193 | 0.0 | 0.0 | 0.00 | 0.00 | 1.04 | 96 | 1002.0 |
| 20260906201528 | 20 | 193 | 0.0 | 0.0 | 0.00 | 0.00 | 0.99 | 96 | 1002.1 |
| 20260906200027 | 20 | 173 | 0.0 | 0.0 | 0.00 | 0.00 | 0.91 | 96 | 1002.1 |
| 20260906194526 | 20 | 222 | 0.0 | 0.0 | 0.00 | 0.00 | 0.89 | 96 | 1002.5 |
| 20260906193025 | 20 | 172 | 0.0 | 0.0 | 0.00 | 0.00 | 0.84 | 96 | 1002.4 |
| 20260906191524 | 20 | 240 | 0.0 | 0.0 | 0.00 | 0.00 | 0.79 | 96 | 1002.7 |
| 20260906190023 | 20 | 187 | 0.0 | 0.0 | 0.00 | 0.00 | 0.71 | 96 | 1003.1 |
| 20260906184521 | 20 | 204 | 0.0 | 0.0 | 0.00 | 0.00 | 0.66 | 96 | 1003.4 |
| 20260906183020 | 20 | 262 | 0.0 | 0.0 | 0.00 | 0.00 | 0.64 | 96 | 1003.6 |
| 20260906181518 | 20 | 200 | 0.0 | 0.0 | 0.00 | 0.00 | 0.61 | 96 | 1003.8 |
| 20260906180017 | 20 | 150 | 0.0 | 0.0 | 0.00 | 0.00 | 0.58 | 96 | 1004.1 |
| 20260906174517 | 20 | 94 | 0.0 | 0.0 | 0.00 | 0.00 | 0.53 | 96 | 1004.2 |
| 20260906173015 | 20 | 94 | 0.0 | 0.0 | 0.00 | 0.00 | 0.46 | 96 | 1004.6 |
| 20260906171515 | 20 | 94 | 0.0 | 0.0 | 0.00 | 0.00 | 0.43 | 95 | 1004.8 |
| 20260906170024 | 20 | 94 | 0.0 | 0.0 | 0.00 | 0.00 | 0.38 | 95 | 1005.2 |
| 20260906164517 | 20 | 94 | 0.0 | 0.0 | 0.00 | 0.00 | 0.33 | 95 | 1005.5 |
| 20260906163011 | 20 | 94 | 0.0 | 0.0 | 0.00 | 0.00 | 0.23 | 95 | 1005.7 |
| 20260906161511 | 20 | 94 | 0.0 | 0.0 | 0.00 | 0.00 | 0.20 | 95 | 1005.8 |
| 20260906160009 | 20 | 94 | 0.0 | 0.0 | 0.00 | 0.00 | 0.15 | 95 | 1005.9 |
| 20260906154518 | 20 | 94 | 0.0 | 0.0 | 0.00 | 0.00 | 0.10 | 95 | 1006.1 |
| 20260906153014 | 20 | 136 | 0.0 | 0.0 | 0.00 | 0.00 | 0.05 | 95 | 1006.1 |
| 20260906151506 | 20 | 103 | 0.0 | 0.0 | 0.00 | 0.00 | 0.03 | 95 | 1006.3 |
| 20260906150005 | 20 | 99 | 0.0 | 0.0 | 0.00 | 0.00 | 0.05 | 95 | 1006.6 |
| 20260906144504 | 20 | 122 | 0.0 | 0.0 | 0.00 | 0.00 | 0.05 | 95 | 1006.7 |
| 20260906143009 | 20 | 122 | 0.0 | 0.0 | 0.00 | 0.00 | 0.05 | 95 | 1006.8 |
| 20260906141502 | 20 | 113 | 0.0 | 0.0 | 0.00 | 0.00 | 0.03 | 94 | 1007.0 |
| 20260906140006 | 20 | 113 | 0.0 | 0.0 | 0.00 | 0.00 | 0.03 | 95 | 1007.2 |
| 20260906134501 | 20 | 113 | 0.0 | 0.0 | 0.00 | 0.00 | 0.03 | 94 | 1007.3 |
| 20260906133105 | 20 | 296 | 0.0 | 0.0 | 0.00 | 0.00 | 0.03 | 94 | 1007.6 |
| 20260906131600 | 20 | 296 | 0.0 | 0.0 | 0.00 | 0.00 | 0.03 | 94 | 1007.8 |
| 20260906130103 | 20 | 296 | 0.0 | 0.0 | 0.00 | 0.00 | 0.03 | 94 | 1008.0 |
| 20260906124601 | 20 | 296 | 0.0 | 0.0 | 0.00 | 0.00 | 0.03 | 94 | 1007.9 |
| 20260906123136 | 20 | 296 | 0.0 | 0.0 | 0.00 | 0.00 | 0.03 | 94 | 1007.9 |
| 20260906121558 | 20 | 296 | 0.0 | 0.0 | 0.00 | 0.00 | 0.03 | 94 | 1008.0 |
| 20260906120056 | 20 | 296 | 0.0 | 0.0 | 0.00 | 0.00 | 0.03 | 94 | 1008.1 |
| 20260906114604 | 20 | 296 | 0.0 | 0.0 | 0.00 | 0.00 | 0.03 | 94 | 1008.4 |
| 20260906113055 | 20 | 296 | 0.0 | 0.0 | 0.00 | 0.00 | 0.03 | 94 | 1008.8 |
| 20260906111555 | 20 | 296 | 0.0 | 0.0 | 0.00 | 0.00 | 0.03 | 94 | 1008.8 |
| 20260906110055 | 20 | 296 | 0.0 | 0.0 | 0.00 | 0.00 | 0.03 | 93 | 1008.8 |
| 20260906104553 | 20 | 282 | 0.0 | 0.0 | 0.00 | 0.00 | 0.03 | 93 | 1008.6 |
| 20260906103054 | 20 | 262 | 0.0 | 0.0 | 0.00 | 0.00 | 0.03 | 93 | 1008.6 |
| 20260906101552 | 20 | 285 | 0.0 | 0.0 | 0.00 | 0.00 | 0.03 | 93 | 1008.5 |
| 20260906100053 | 20 | 99 | 0.0 | 0.0 | 0.00 | 0.00 | 0.03 | 93 | 1008.4 |
| 20260906094602 | 20 | 99 | 0.0 | 0.0 | 0.00 | 0.00 | 0.03 | 92 | 1008.4 |
| 20260906093051 | 20 | 127 | 0.0 | 0.0 | 0.00 | 0.00 | 0.03 | 92 | 1008.3 |
| 20260906091601 | 20 | 75 | 0.0 | 0.0 | 0.00 | 0.00 | 0.03 | 92 | 1008.4 |
| 20260906090049 | 20 | 113 | 0.0 | 0.0 | 0.00 | 0.00 | 0.03 | 92 | 1008.5 |
| 20260906084551 | 20 | 97 | 1.6 | 0.0 | 0.00 | 0.00 | 0.03 | 91 | 1008.4 |
| 20260906083051 | 20 | 111 | 0.0 | 0.0 | 0.00 | 0.00 | 0.03 | 90 | 1008.4 |
| 20260906081547 | 20 | 118 | 0.0 | 0.0 | 0.00 | 0.00 | 0.03 | 89 | 1008.4 |
| 20260906080047 | 20 | 101 | 0.0 | 0.0 | 0.00 | 0.00 | 0.03 | 89 | 1008.4 |
| 20260906074550 | 20 | 120 | 0.0 | 0.0 | 0.00 | 0.00 | 0.03 | 88 | 1008.4 |
| 20260906073045 | 20 | 129 | 0.0 | 0.0 | 0.00 | 0.00 | 0.03 | 87 | 1008.4 |
| 20260906071546 | 20 | 96 | 0.0 | 0.0 | 0.00 | 0.00 | 0.03 | 86 | 1008.4 |
| 20260906070045 | 21 | 205 | 0.0 | 0.0 | 0.00 | 0.00 | 0.00 | 85 | 1008.5 |
| 20260906064544 | 21 | 226 | 0.0 | 0.0 | 0.00 | 0.00 | 0.00 | 84 | 1008.5 |
| 20260906063044 | 21 | 223 | 0.0 | 0.0 | 0.00 | 0.00 | 0.00 | 83 | 1008.6 |
| 20260906061544 | 21 | 208 | 0.0 | 0.0 | 0.00 | 0.00 | 0.00 | 81 | 1008.6 |
| 20260906060042 | 21 | 122 | 1.6 | 0.0 | 0.00 | 0.00 | 0.00 | 80 | 1008.6 |
| 20260906054544 | 21 | 68 | 1.6 | 0.0 | 0.00 | 0.00 | 0.00 | 78 | 1008.8 |
| 20260906053051 | 21 | 143 | 0.0 | 0.0 | 0.00 | 0.00 | 0.00 | 80 | 1008.5 |
| 20260906051541 | 21 | 160 | 0.0 | 0.0 | 0.00 | 0.00 | 0.00 | 80 | 1008.6 |
| 20260906050050 | 21 | 150 | 0.0 | 0.0 | 0.00 | 0.00 | 0.00 | 81 | 1008.7 |
| 20260906044539 | 21 | 140 | 0.0 | 0.0 | 0.00 | 0.00 | 0.00 | 81 | 1008.8 |
| 20260906043039 | 21 | 162 | 0.0 | 0.0 | 0.00 | 0.00 | 0.00 | 82 | 1008.9 |
| 20260906041538 | 21 | 165 | 0.0 | 0.0 | 0.00 | 0.00 | 0.00 | 84 | 1008.9 |
| 20260906040040 | 21 | 165 | 0.0 | 0.0 | 0.00 | 0.00 | 0.00 | 84 | 1009.2 |
| 20260906034538 | 21 | 214 | 0.0 | 0.0 | 0.00 | 0.00 | 0.00 | 85 | 1009.4 |
| 20260906033047 | 21 | 218 | 0.0 | 0.0 | 0.00 | 0.00 | 0.00 | 85 | 1009.4 |
| 20260906031538 | 21 | 165 | 0.0 | 0.0 | 0.00 | 0.00 | 0.00 | 84 | 1009.6 |
| 20260906030039 | 21 | 210 | 0.0 | 0.0 | 0.00 | 0.00 | 0.00 | 83 | 1009.8 |
| 20260906024544 | 21 | 244 | 0.0 | 0.0 | 0.00 | 0.00 | 0.00 | 82 | 1009.9 |
| 20260906023047 | 21 | 191 | 0.0 | 0.0 | 0.00 | 0.00 | 0.00 | 82 | 1009.9 |
| 20260906021535 | 21 | 227 | 0.0 | 0.0 | 0.00 | 0.00 | 0.00 | 83 | 1009.9 |
| 20260906020037 | 21 | 253 | 0.0 | 0.0 | 0.00 | 0.00 | 0.00 | 83 | 1009.9 |
| 20260906014533 | 21 | 167 | 0.0 | 0.0 | 0.00 | 0.00 | 0.00 | 83 | 1010.0 |
| 20260906013046 | 21 | 252 | 0.0 | 0.0 | 0.00 | 0.00 | 0.00 | 82 | 1010.1 |
| 20260906011535 | 21 | 191 | 0.0 | 0.0 | 0.00 | 0.00 | 0.00 | 81 | 1010.3 |
| 20260906010031 | 21 | 163 | 0.0 | 0.0 | 0.00 | 0.00 | 0.00 | 80 | 1010.2 |
| 20260906004530 | 21 | 158 | 0.0 | 0.0 | 0.00 | 0.00 | 0.00 | 79 | 1010.4 |
| 20260906003029 | 21 | 181 | 0.0 | 0.0 | 0.00 | 0.00 | 0.00 | 78 | 1010.4 |
| 20260906001529 | 21 | 155 | 0.0 | 0.0 | 0.00 | 0.00 | 0.00 | 78 | 1010.4 |
| 20260906000045 | 21 | 145 | 0.0 | 0.0 | 0.00 | 0.00 | 0.00 | 79 | 1010.4 |
| 20260905234528 | 21 | 160 | 0.0 | 0.0 | 0.00 | 0.00 | 0.00 | 81 | 1010.4 |
| 20260905233022 | 21 | 160 | 0.0 | 0.0 | 0.00 | 0.00 | 0.00 | 84 | 1010.1 |
| 20260905231521 | 20 | 214 | 0.0 | 0.0 | 0.00 | 0.00 | 0.00 | 86 | 1010.0 |
| 20260905230019 | 20 | 136 | 0.0 | 0.0 | 0.00 | 0.00 | 0.00 | 88 | 1009.9 |
| 20260905224516 | 20 | 193 | 0.0 | 0.0 | 0.00 | 0.00 | 0.00 | 89 | 1009.9 |
| 20260905223013 | 20 | 245 | 0.0 | 0.0 | 0.00 | 0.00 | 0.00 | 90 | 1009.9 |